SCP
2 2 2 2 1 2 2 2 2 2 2 2 2 1 0 0 0 0 0 0 0 0 0 0 0 0 0 0 0 0 0 1 1 0 0 0 1 1
3 3 3 3 2 2 2 2 2 2 2 2 2 1 0 0 0 0 1 0 0 0 0 0 0 0 0 0 0 0 0 0 0 0 0 0 1 1
3 3 4 4 4 3 3 3 3 3 2 2 2 1 0 0 0 0 1 0 0 0 0 0 0 0 0 0 0 0 0 0 0 0 0 0 1 1
3 3 4 4 5 4 4 4 3 3 2 2 1 1 1 0 0 0 0 0 0 0 0 0 0 0 0 0 0 0 0 0 0 0 0 0 1 1
3 3 3 4 4 5 5 5 4 3 3 2 2 1 1 1 1 1 1 1 1 0 0 0 0 0 0 0 0 0 0 0 0 0 0 0 1 1
3 3 3 3 4 4 5 5 5 5 4 3 2 2 1 1 1 1 0 0 0 1 1 1 1 0 0 0 0 0 0 0 0 0 0 0 0 0
3 3 3 4 4 4 4 5 6 6 6 5 4 3 2 2 2 1 0 0 0 0 1 1 1 1 0 0 0 0 0 0 0 0 0 0 0 0
3 3 4 5 5 4 3 3 4 6 7 7 6 4 4 3 3 2 1 0 0 0 1 1 1 1 1 0 0 0 0 0 0 0 0 0 0 0
3 4 5 6 5 4 2 2 3 4 5 7 7 6 5 5 4 3 2 1 1 0 1 1 1 1 1 0 0 0 0 0 0 0 0 0 0 0
3 4 5 6 5 4 2 2 2 3 3 5 6 6 6 6 5 4 3 1 1 0 0 0 0 0 0 0 0 0 0 0 0 0 0 0 0 0
3 3 5 5 5 3 2 2 2 3 2 3 3 4 4 4 4 4 3 2 1 0 0 1 1 0 0 0 0 0 0 0 0 0 0 0 0 0
3 3 4 5 4 2 1 2 2 2 3 3 3 3 3 2 3 3 3 2 1 0 0 0 1 1 1 0 0 0 0 0 0 0 0 0 0 0
4 4 4 4 3 1 1 1 1 2 3 3 4 4 3 2 2 3 3 2 1 1 0 0 1 1 1 1 0 0 0 0 0 0 0 0 0 0
6 6 5 4 2 1 0 1 1 1 2 3 4 4 4 3 2 2 2 2 1 1 1 0 1 1 1 1 1 0 0 0 1 1 0 0 0 0
6 6 5 3 1 1 0 0 0 0 1 3 4 4 4 3 3 3 3 2 2 1 1 1 1 1 1 1 1 1 0 0 1 1 0 0 0 0
4 4 3 2 1 1 2 2 2 1 1 2 3 4 4 4 4 3 3 3 3 2 1 1 1 1 1 1 1 1 1 1 1 1 1 0 0 0
3 2 1 1 1 2 3 4 4 3 2 2 2 3 5 5 5 5 5 4 4 3 2 2 1 1 1 1 1 1 1 1 2 2 1 0 0 0
3 3 2 2 2 2 3 4 5 5 4 3 2 3 4 5 6 6 6 5 5 4 3 2 1 1 1 1 1 1 1 1 1 1 1 1 1 0
2 3 4 4 3 3 3 3 3 4 5 4 4 3 3 4 5 6 6 6 6 5 3 2 2 1 1 1 1 1 1 1 1 1 1 1 0 0
3 3 4 5 4 4 3 2 2 3 4 4 4 3 3 3 3 4 5 6 6 5 4 3 2 2 2 1 1 0 0 1 1 0 0 0 0 0
3 3 4 5 5 4 3 3 2 3 4 4 3 3 2 2 2 2 4 5 6 6 5 3 2 1 1 1 1 0 0 0 0 0 0 0 0 0
4 4 3 4 4 4 3 3 3 3 3 3 3 3 2 1 1 1 2 4 5 6 5 3 2 1 1 1 0 0 0 0 0 0 0 0 0 0
4 4 3 3 4 4 3 3 3 3 3 3 3 3 2 1 1 1 2 3 5 5 5 3 1 0 0 0 0 0 0 0 0 0 0 0 0 0
Wind_Speed
1 1 1 1 1 1 2 3 3 1 3 3 2 2 2 2 3 3 2 4 5 4 4 4 4 4 3 3 3 3 3 3 3 3 3 4 4 4
1 1 1 1 1 1 1 1 2 3 2 3 3 2 2 2 4 3 3 5 6 5 6 6 5 5 4 4 3 3 3 3 3 3 3 3 4 4
1 1 2 1 1 1 1 1 1 2 2 2 1 1 2 2 2 2 3 3 3 6 7 7 6 6 5 5 5 5 4 4 4 4 4 4 4 5
2 1 2 1 1 1 1 1 1 2 3 2 2 1 2 3 2 3 3 4 4 6 8 8 8 8 7 7 6 6 5 5 5 5 4 5 5 5
3 3 3 2 2 2 1 1 1 1 2 2 2 2 2 1 1 2 3 3 4 5 7 9 9 9 9 9 8 7 7 7 6 6 5 5 5 5
3 3 3 3 3 3 2 2 2 1 1 1 2 2 2 2 1 2 2 3 4 3 4 5 7 10 10 10 10 10 9 8 8 7 6 6 5 5
3 3 3 3 4 3 3 3 2 2 2 2 2 2 2 2 3 3 3 3 3 3 2 3 4 4 5 8 10 11 10 10 9 9 8 7 7 7
3 3 3 3 4 5 5 5 5 4 4 3 3 3 5 4 3 3 3 2 3 3 3 4 3 4 4 4 8 10 11 11 11 10 10 9 9 8
4 3 3 3 3 3 4 4 5 7 7 6 5 6 5 5 4 4 4 4 5 3 3 4 3 4 4 5 8 9 10 11 11 11 10 10 10 9
4 4 4 4 4 3 3 3 4 5 6 6 7 7 6 6 6 6 6 5 4 3 3 3 3 4 4 4 7 9 10 10 11 11 11 11 11 10
4 4 4 5 6 5 3 4 5 6 6 7 8 8 8 7 5 2 2 2 3 4 3 3 3 3 3 4 5 8 9 10 11 11 11 11 11 10
3 4 5 6 7 6 5 5 6 7 5 4 5 6 5 6 6 6 5 4 3 4 4 3 3 2 2 3 3 3 5 8 10 10 11 11 10 6
4 4 4 6 7 7 7 6 9 7 4 4 4 4 3 3 4 5 5 5 5 5 4 4 3 3 3 2 2 3 3 4 4 6 8 10 10 9
5 4 5 6 7 8 7 8 8 5 3 3 3 4 4 4 5 5 5 5 6 7 5 4 3 4 3 3 3 2 3 3 3 4 4 6 8 11
5 7 8 8 7 7 8 8 6 4 4 4 5 5 5 5 3 2 3 3 4 5 4 4 4 3 4 4 4 3 2 3 3 4 4 4 5 5
5 6 7 7 5 6 5 4 4 5 5 5 5 5 3 3 3 3 3 2 2 4 3 3 4 5 4 4 4 3 3 3 3 4 4 4 4 5
3 1 1 2 3 3 3 3 3 3 4 4 4 3 3 3 3 3 2 2 3 4 3 2 2 3 5 4 4 4 3 3 4 4 3 4 4 5
3 2 3 3 4 4 4 4 3 4 4 4 3 3 4 3 3 2 2 3 3 4 4 3 1 1 1 3 5 4 4 4 3 3 4 4 5 4
3 4 4 4 5 5 4 4 4 4 3 3 3 4 3 3 3 3 3 3 3 4 4 3 2 2 3 4 4 4 4 3 3 3 4 4 5 5
4 4 5 4 4 4 4 4 4 3 3 3 3 3 3 3 3 3 3 4 4 4 3 3 3 4 5 5 4 3 6 5 4 4 4 4 3 3
4 4 4 4 4 4 4 3 3 3 3 3 3 3 3 3 3 4 4 4 4 4 4 5 6 6 3 1 2 3 4 6 7 5 4 3 3 2
4 4 4 4 4 3 3 2 2 2 3 3 3 3 3 3 4 4 4 4 3 4 5 4 3 2 2 3 5 5 4 3 4 5 5 6 5 5
4 4 4 3 3 2 2 3 3 3 3 3 3 3 3 3 3 4 4 4 3 3 3 3 2 2 3 4 4 4 4 4 2 1 2 4 7 7
Wind_Direction
223 218 215 248 196 197 172 160 157 201 269 258 253 245 216 191 197 194 197 199 197 199 201 202 204 201 207 215 225 231 226 217 222 230 234 227 220 218
214 211 233 243 238 212 191 182 169 175 228 247 233 230 207 202 196 201 213 208 209 207 208 213 215 213 212 210 213 219 216 216 218 222 225 218 208 202
256 216 234 228 223 236 195 188 191 168 209 268 244 225 185 206 212 217 219 222 226 217 215 219 220 220 217 214 215 218 217 214 216 223 224 216 212 208
244 231 246 234 227 232 202 211 218 194 182 229 256 229 215 215 215 216 223 224 227 222 219 224 225 223 220 220 220 218 215 218 220 222 225 223 221 220
236 229 238 216 238 234 218 223 230 210 182 190 240 235 237 223 212 243 238 248 235 227 223 227 228 227 228 227 224 218 217 219 220 220 223 226 229 227
246 234 227 215 220 225 224 226 216 196 190 197 239 250 243 236 190 226 254 253 248 234 230 227 228 229 232 232 228 224 222 221 221 220 221 223 225 227
254 242 232 221 218 220 221 218 203 203 203 209 233 249 247 225 224 218 229 253 256 233 232 235 225 230 234 237 234 231 227 224 223 221 218 219 219 219
244 254 243 234 242 238 235 223 203 198 207 212 226 232 242 233 228 220 217 226 262 238 205 241 211 230 236 231 232 228 225 226 225 222 219 217 216 216
231 239 252 255 241 245 251 243 235 231 213 204 221 231 232 225 214 224 220 219 236 228 191 243 222 235 239 237 227 222 223 227 227 224 221 217 216 216
230 226 233 252 249 229 241 257 258 253 238 223 226 234 233 226 211 212 220 235 255 243 185 227 231 232 239 236 229 222 225 227 228 225 221 219 217 217
243 236 230 245 251 227 226 251 269 275 264 243 240 245 245 237 216 199 214 220 257 250 206 207 230 235 236 238 233 223 225 228 229 227 224 221 218 215
262 254 240 242 249 229 223 234 253 264 273 278 267 268 262 256 231 211 207 211 234 251 220 199 216 202 261 248 234 231 229 233 231 229 226 221 214 207
252 258 258 251 248 240 230 233 244 251 251 249 259 266 267 261 245 230 215 207 214 236 221 189 206 201 212 252 252 232 225 230 226 229 227 221 211 200
244 253 256 255 252 250 243 246 250 249 251 251 253 257 255 254 250 239 229 226 224 232 228 193 203 205 206 232 253 244 232 228 218 221 222 220 217 215
246 255 260 256 251 250 250 248 243 233 233 245 251 253 249 249 249 249 246 238 246 245 236 216 212 215 208 225 235 232 241 239 216 218 216 212 210 203
257 270 269 262 259 259 262 249 231 229 229 239 249 255 259 254 246 236 238 241 261 273 263 238 224 212 225 231 223 233 221 222 221 222 219 220 215 208
240 268 270 280 275 281 270 252 241 238 239 245 249 257 255 251 250 240 228 223 232 251 269 273 254 231 221 216 222 228 227 235 229 211 208 227 228 218
188 226 246 250 254 257 257 250 241 240 242 241 238 239 243 243 248 247 231 223 235 244 249 247 246 308 303 266 226 225 225 228 232 214 202 218 240 232
195 231 240 245 252 255 251 242 243 242 237 238 237 237 240 240 240 242 237 235 241 244 245 233 207 199 242 266 266 219 217 229 221 215 216 216 232 234
220 231 239 244 247 252 252 244 245 247 236 234 236 234 230 230 233 238 236 235 237 240 248 239 221 214 222 237 248 257 227 217 214 220 226 228 243 248
229 233 236 239 242 247 253 250 243 243 245 235 232 236 233 230 237 240 241 243 235 234 239 245 243 235 225 209 248 261 255 226 210 207 209 216 234 232
229 230 232 232 236 242 255 257 254 248 246 245 246 243 237 231 236 243 241 239 239 236 240 251 255 224 200 217 239 251 260 264 241 230 213 201 196 206
231 229 229 233 234 232 231 241 248 254 251 248 252 247 241 240 242 244 247 239 240 251 253 257 259 235 225 227 235 246 251 250 243 234 256 255 236 238